CDT,Max TemperatureF,Mean TemperatureF,Min TemperatureF,Max Dew PointF,MeanDew PointF,Min DewpointF,Max Humidity, Mean Humidity, Min Humidity, Max Sea Level PressureIn, Mean Sea Level PressureIn, Min Sea Level PressureIn, Max VisibilityMiles, Mean VisibilityMiles, Min VisibilityMiles, Max Wind SpeedMPH, Mean Wind SpeedMPH, Max Gust SpeedMPH,PrecipitationIn, CloudCover, Events, WindDirDegrees
2011-10-1,59,42,26,37,32,25,100,77,36,30.36,30.29,30.21,10,10,5,10,1,,0.01,0,,189
2011-10-2,73,54,35,52,40,34,93,65,29,30.22,30.17,30.11,10,10,9,12,3,,0.00,0,,228
2011-10-3,75,56,37,48,44,37,100,67,31,30.23,30.19,30.15,10,10,5,9,2,,0.00,0,,187
2011-10-4,78,62,46,50,45,37,93,61,23,30.21,30.17,30.11,10,10,10,9,3,,0.00,0,,208
2011-10-5,80,68,57,50,47,45,67,49,28,30.15,30.12,30.07,10,10,10,14,5,18,0.00,0,,161
2011-10-6,78,68,57,46,45,43,67,45,28,30.18,30.13,30.10,10,10,10,13,8,21,0.00,0,,170
2011-10-7,80,71,62,52,48,45,60,47,32,30.12,30.02,29.91,10,10,10,23,13,34,0.00,0,,173
2011-10-8,80,74,68,54,51,46,50,44,37,30.09,30.03,29.94,10,10,10,23,17,33,0.00,0,,198
2011-10-9,71,61,51,55,53,48,94,70,50,30.27,30.21,30.12,10,10,10,14,6,21,0.00,2,,344
2011-10-10,77,62,46,52,47,43,100,55,32,30.21,30.07,29.94,10,10,10,16,6,24,0.00,0,,163
2011-10-11,71,65,59,55,50,46,82,58,43,29.94,29.90,29.84,10,10,10,12,9,20,0.00,2,,176
2011-10-12,71,63,55,57,53,48,100,71,43,29.84,29.75,29.66,10,10,6,14,5,22,0.17,4,Thunderstorm,149
2011-10-13,57,52,48,55,52,45,100,94,87,29.66,29.52,29.46,10,8,3,18,5,28,0.62,8,,285
2011-10-14,48,45,42,45,40,34,93,81,62,29.54,29.47,29.44,10,10,8,25,16,38,0.09,8,,288
2011-10-15,51,46,41,34,31,28,66,59,44,29.69,29.63,29.54,10,10,10,26,19,37,0.00,6,,287
2011-10-16,51,46,41,36,30,21,76,59,37,29.69,29.62,29.56,10,10,10,29,16,46,0.00,4,,268
2011-10-17,48,44,41,36,31,27,76,59,46,29.73,29.58,29.56,10,10,10,23,17,30,0.01,6,,284
2011-10-18,42,40,37,37,35,34,93,85,76,30.00,29.88,29.76,10,9,4,12,7,,0.02,8,,325
2011-10-19,42,40,37,39,37,34,100,92,81,30.08,30.04,29.99,10,10,4,15,6,20,0.43,7,,20
2011-10-20,39,37,35,37,34,19,100,85,48,29.97,29.89,29.84,10,10,5,15,11,29,0.05,8,,360
2011-10-21,51,40,28,36,30,25,100,72,35,29.98,29.94,29.89,10,10,4,10,2,,0.00,2,,241
2011-10-22,50,40,30,39,33,27,100,74,47,30.05,30.00,29.93,10,10,10,10,7,,0.00,1,,282
2011-10-23,55,44,33,45,37,28,100,75,58,29.95,29.79,29.69,10,10,5,16,9,21,0.40,4,,216
2011-10-24,50,44,37,39,35,27,100,80,40,30.04,29.92,29.79,10,10,10,13,8,17,0.05,5,,276
2011-10-25,42,38,33,36,33,28,100,79,57,30.08,30.02,29.96,10,10,10,13,4,16,0.00,8,,87
2011-10-26,46,36,26,37,33,25,100,86,53,30.05,30.02,29.99,10,10,5,9,2,,0.00,5,,305
2011-10-27,42,32,21,37,29,21,100,88,61,30.06,30.00,29.97,10,10,1,12,1,,0.00,5,,215
2011-10-28,35,30,24,34,27,23,100,95,81,30.05,30.03,29.94,10,9,1,7,1,,0.01,3,,208
2011-10-29,44,36,28,36,31,25,100,81,49,30.01,29.98,29.94,10,10,5,13,6,,0.01,5,,251
2011-10-30,44,40,35,39,32,25,100,77,49,29.99,29.91,29.84,10,10,7,15,8,23,0.04,6,,110
2011-10-31,44,40,37,39,37,34,100,85,66,29.95,29.93,29.87,10,10,10,12,3,18,0.00,7,,229